[[{"header":{"parameterUnit":"m.s-1","parameterCategory":2,"la1":30.2991,"la2":30.254,"lo1":-89.0895,"lo2":-89.0444,"dy":0.0017,"dx":0.0017,"nx":28,"ny":28,"refTime":"2024-08-24T09:00:00:Z","depth":"0","parameterNumber":2,"parameterNumberName":"U-component_of_CURRENTS"},"data":[0,0,0,0,0,0,0,0,0,0,0,0,0,0,0,0,0,0,0,0,0,0,0,0,0,0,0,0,0,0,0,0,0,0,0,0,0,0,0,0,0,0,0,0,0,0,0,0,0,0,0,0,0,0,0,0,0,0,-0.1868,-0.1868,0,-0.1879,-0.1879,-0.1879,-0.1815,-0.1813,-0.1812,-0.181,-0.1777,-0.1777,-0.1778,0,0,0,0,0,0,0,0,0,0,0,0,0,-0.1836,-0.1836,-0.1868,-0.1868,-0.1869,-0.1879,-0.1879,-0.1879,-0.1815,-0.1813,-0.1811,-0.181,-0.1776,-0.1777,-0.1778,0,0,0,0,0,0,0,0,0,0,0,0,0,-0.1845,-0.1836,-0.1868,-0.1841,-0.1839,-0.1879,-0.1879,-0.1879,-0.1815,-0.1813,-0.1811,-0.1809,-0.1776,-0.1777,-0.1778,-0.1827,0,0,-0.178,-0.178,0,0,0,0,0,0,0,0,-0.1845,-0.1846,-0.1844,-0.1843,-0.1841,-0.1847,-0.1856,-0.186,-0.1816,-0.182,-0.181,-0.1808,-0.18,-0.1799,-0.1801,-0.1825,-0.1824,-0.178,-0.178,-0.1781,-0.1781,0,0,0,0,0,0,0,-0.1844,-0.1845,-0.1868,-0.1845,-0.1843,-0.1844,-0.1842,-0.1856,-0.1819,-0.182,-0.1816,-0.1824,-0.1798,-0.18,-0.18,-0.1823,-0.178,-0.1781,-0.1781,-0.1781,-0.1882,-0.1884,0,0,0,0,0,0,-0.1851,-0.1845,-0.1868,-0.1869,-0.1842,-0.1847,-0.1844,-0.1844,-0.1819,-0.1815,-0.1826,-0.1821,-0.18,-0.1799,-0.1798,-0.1858,-0.1781,-0.1781,-0.1782,-0.188,-0.1882,-0.1885,0,0,0,0,0,0,-0.185,-0.1852,-0.1868,-0.1861,-0.1863,-0.185,-0.185,-0.1845,-0.1844,-0.1825,-0.1819,-0.1829,-0.1798,-0.1797,-0.1823,-0.1856,-0.1782,-0.1782,-0.1877,-0.1881,-0.1884,-0.1976,0,0,0,0,0,0,-0.1849,-0.1852,-0.1858,-0.1861,-0.1864,-0.1901,-0.1852,-0.1847,-0.1855,-0.1848,-0.1827,-0.1821,-0.1797,-0.1822,-0.1823,-0.1856,-0.1783,-0.1874,-0.1879,-0.1883,-0.197,-0.1982,-0.1992,0,0,0,0,0,-0.1847,-0.187,-0.1858,-0.1862,-0.1871,-0.1903,-0.1905,-0.1885,-0.1857,-0.1872,-0.1859,-0.1821,-0.1849,-0.1825,-0.1826,-0.1859,-0.1872,-0.1877,-0.1882,-0.1965,-0.198,-0.1992,0,0,0,0,0,0,-0.187,-0.1867,-0.1853,-0.1875,-0.1891,-0.1893,-0.1907,-0.1896,-0.1898,-0.189,-0.1856,-0.1852,-0.1886,-0.1868,-0.1842,-0.1902,-0.1853,-0.1859,-0.1916,-0.1929,-0.194,-0.1953,-0.1784,0,0,0,0,0,-0.1879,-0.1883,-0.1892,-0.1911,-0.1918,-0.1914,-0.1924,-0.1919,-0.1922,-0.1919,-0.1907,-0.1901,-0.1913,-0.1915,-0.1922,-0.1961,-0.1959,-0.1982,-0.1993,-0.2003,-0.2016,-0.2039,-0.2053,-0.1901,-0.1901,-0.1901,0,0,-0.1893,-0.1893,-0.1896,-0.1915,-0.1918,-0.1952,-0.1913,-0.1941,-0.197,-0.1919,-0.1951,-0.1944,-0.1934,-0.1973,-0.1986,-0.1958,-0.2051,-0.2009,-0.2017,-0.2025,-0.2046,-0.206,-0.2073,-0.1905,-0.1904,-0.1904,0,0,-0.193,-0.1924,-0.1939,-0.1961,-0.1983,-0.1988,-0.2,-0.2014,-0.2015,-0.2049,-0.2026,-0.2044,-0.205,-0.206,-0.2061,-0.2144,-0.2112,-0.2142,-0.2205,-0.2228,-0.224,-0.2251,-0.2292,-0.2305,-0.2143,-0.2143,-0.2143,0,-0.1947,-0.1968,-0.1956,-0.199,-0.2015,-0.2007,-0.2049,-0.2066,-0.2089,-0.2109,-0.2067,-0.211,-0.2092,-0.2158,-0.2176,-0.2169,-0.218,-0.2152,-0.2242,-0.2252,-0.2262,-0.23,-0.2314,-0.2148,-0.2148,-0.2147,-0.2147,0,-0.1996,-0.2023,-0.2042,-0.207,-0.2099,-0.2141,-0.2163,-0.2195,-0.2186,-0.2199,-0.2251,-0.2238,-0.2255,-0.226,-0.2235,-0.231,-0.2298,-0.2255,-0.2205,-0.2282,-0.2318,-0.2331,-0.2156,-0.2154,-0.2152,-0.2151,0,0,-0.2019,-0.2062,-0.2072,-0.21,-0.2148,-0.2179,-0.2239,-0.2294,-0.2341,-0.2347,-0.2403,-0.2417,-0.2401,-0.2404,-0.2389,-0.241,-0.2483,-0.2363,-0.2362,-0.24,-0.2554,-0.2429,-0.243,-0.245,-0.2452,-0.2454,-0.2561,0,-0.2063,-0.2121,-0.2142,-0.2221,-0.2258,-0.2287,-0.2347,-0.2399,-0.2423,-0.2479,-0.2479,-0.2517,-0.2459,-0.2469,-0.2484,-0.248,-0.2517,-0.2459,-0.2476,-0.2478,-0.2353,-0.244,-0.2298,-0.2369,-0.2573,-0.2575,-0.2576,0,-0.2105,-0.2142,-0.2204,-0.2291,-0.2312,-0.2361,-0.2453,-0.2509,-0.2588,-0.2606,-0.2642,-0.2638,-0.2681,-0.2605,-0.2646,-0.261,-0.2597,-0.2589,-0.2592,-0.2448,-0.2375,-0.232,-0.2384,-0.2343,-0.2595,-0.2594,-0.2592,0,-0.2099,-0.2194,-0.2234,-0.2264,-0.2357,-0.2401,-0.2455,-0.2542,-0.2602,-0.2686,-0.2723,-0.2768,-0.2776,-0.2775,-0.2727,-0.2697,-0.2766,-0.2715,-0.261,-0.2603,-0.2471,-0.2445,-0.2486,-0.2765,-0.2764,-0.2764,-0.2764,0,-0.2127,-0.2175,-0.2236,-0.2261,-0.2355,-0.241,-0.2509,-0.2577,-0.2671,-0.2748,-0.2776,-0.2837,-0.2812,-0.2831,-0.2793,-0.2733,-0.2812,-0.2647,-0.2623,-0.25,-0.2477,-0.2421,-0.2431,-0.2768,-0.2767,-0.2766,-0.2766,0,-0.2107,-0.2143,-0.221,-0.2304,-0.2344,-0.2405,-0.2532,-0.2601,-0.2689,-0.2789,-0.2814,-0.2895,-0.291,-0.2889,-0.2895,-0.2795,-0.2706,-0.2734,-0.2594,-0.2548,-0.2356,-0.2376,-0.2401,-0.2336,-0.2639,-0.2636,-0.2634,0,-0.2104,-0.2118,-0.2215,-0.2265,-0.2308,-0.2406,-0.2475,-0.2592,-0.2658,-0.2821,-0.286,-0.2927,-0.294,-0.2904,-0.2768,-0.2691,-0.2668,-0.2502,-0.2398,-0.2346,-0.2354,-0.2366,-0.2312,-0.2291,-0.2287,-0.2283,-0.228,0,-0.2095,-0.2104,-0.2143,-0.2232,-0.231,-0.2409,-0.2506,-0.2566,-0.2696,-0.2778,-0.2893,-0.2928,-0.2881,-0.2714,-0.2572,-0.25,-0.2404,-0.2416,-0.2406,-0.2125,-0.2103,-0.2025,-0.2248,-0.2245,-0.2249,-0.2251,-0.2253,-0.2254,-0.2077,-0.2083,-0.2108,-0.2199,-0.229,-0.2373,-0.2398,-0.2501,-0.2591,-0.2641,-0.2775,-0.2717,-0.2608,-0.2377,-0.2316,-0.2085,-0.2176,-0.197,-0.202,-0.2055,-0.1918,-0.2061,-0.1982,-0.1984,-0.1986,-0.1987,-0.1988,0,-0.2046,-0.2033,-0.2085,-0.2158,-0.2211,-0.2288,-0.2382,-0.2363,-0.2401,-0.2438,-0.2461,-0.2309,-0.2127,-0.2034,-0.182,-0.1703,-0.1672,-0.1669,-0.1678,-0.1654,-0.1811,-0.1713,-0.1516,-0.1516,-0.1516,-0.1516,-0.1516,-0.1516,-0.2023,-0.2001,-0.2002,-0.2047,-0.2099,-0.2097,-0.2115,-0.2101,-0.2082,-0.198,-0.1871,-0.1834,-0.1769,-0.1796,-0.1621,-0.1531,-0.1507,-0.1449,-0.1514,-0.1637,-0.167,-0.1701,-0.161,-0.1394,-0.1394,-0.1265,-0.1265,-0.1264]},{"header":{"parameterUnit":"m.s-1","parameterCategory":2,"la1":30.2991,"la2":30.254,"lo1":-89.0895,"lo2":-89.0444,"dy":0.0017,"dx":0.0017,"nx":28,"ny":28,"refTime":"2024-08-24T09:00:00:Z","depth":"0","parameterNumber":3,"parameterNumberName":"V-component_of_CURRENTS"},"data":[0,0,0,0,0,0,0,0,0,0,0,0,0,0,0,0,0,0,0,0,0,0,0,0,0,0,0,0,0,0,0,0,0,0,0,0,0,0,0,0,0,0,0,0,0,0,0,0,0,0,0,0,0,0,0,0,0,0,-0.1014,-0.1014,0,-0.0944,-0.0943,-0.0941,-0.0871,-0.087,-0.087,-0.0869,-0.0666,-0.0661,-0.0656,0,0,0,0,0,0,0,0,0,0,0,0,0,-0.0978,-0.0979,-0.1014,-0.1014,-0.1013,-0.0944,-0.0943,-0.0941,-0.0871,-0.087,-0.0869,-0.0869,-0.0667,-0.0662,-0.0656,0,0,0,0,0,0,0,0,0,0,0,0,0,-0.0955,-0.0979,-0.1014,-0.0973,-0.0969,-0.0944,-0.0942,-0.0941,-0.0871,-0.087,-0.0869,-0.0868,-0.0669,-0.0662,-0.0655,-0.0626,0,0,-0.0632,-0.0629,0,0,0,0,0,0,0,0,-0.0957,-0.0956,-0.098,-0.0976,-0.0971,-0.0919,-0.0855,-0.083,-0.0871,-0.0903,-0.0869,-0.0868,-0.0742,-0.0728,-0.0712,-0.0616,-0.0607,-0.0632,-0.0627,-0.0624,-0.0622,0,0,0,0,0,0,0,-0.0958,-0.0958,-0.0982,-0.0979,-0.0974,-0.0921,-0.0917,-0.085,-0.0822,-0.0901,-0.0896,-0.0896,-0.0738,-0.072,-0.0707,-0.0604,-0.0632,-0.0625,-0.0621,-0.0618,-0.0416,-0.0415,0,0,0,0,0,0,-0.0983,-0.096,-0.0984,-0.098,-0.0967,-0.0923,-0.0918,-0.0933,-0.0825,-0.0811,-0.0897,-0.0893,-0.0733,-0.0715,-0.0699,-0.0622,-0.0624,-0.0617,-0.0613,-0.0416,-0.0415,-0.0414,0,0,0,0,0,0,-0.0983,-0.0987,-0.0987,-0.0971,-0.0968,-0.0926,-0.0942,-0.0932,-0.0905,-0.0825,-0.0806,-0.0879,-0.0731,-0.071,-0.0625,-0.0615,-0.0614,-0.0607,-0.0418,-0.0416,-0.0415,-0.049,0,0,0,0,0,0,-0.0982,-0.0987,-0.1,-0.0973,-0.097,-0.0973,-0.0943,-0.0932,-0.0909,-0.0902,-0.0803,-0.0784,-0.0729,-0.0636,-0.0618,-0.0605,-0.0601,-0.0419,-0.0417,-0.0415,-0.0489,-0.0492,-0.0494,0,0,0,0,0,-0.0982,-0.1011,-0.1002,-0.1004,-0.0992,-0.0974,-0.0966,-0.0929,-0.0909,-0.09,-0.0824,-0.0787,-0.0612,-0.0629,-0.0608,-0.0593,-0.042,-0.0417,-0.0415,-0.0488,-0.0491,-0.0494,0,0,0,0,0,0,-0.0999,-0.1006,-0.0995,-0.1024,-0.1,-0.0964,-0.0961,-0.093,-0.0867,-0.0853,-0.0771,-0.0747,-0.067,-0.0617,-0.0639,-0.0527,-0.051,-0.0504,-0.0573,-0.0575,-0.0578,-0.0594,-0.0595,0,0,0,0,0,-0.1013,-0.1038,-0.102,-0.104,-0.1036,-0.0996,-0.0982,-0.0954,-0.0901,-0.0873,-0.0805,-0.0723,-0.0647,-0.0601,-0.0531,-0.0468,-0.0416,-0.0443,-0.0445,-0.0448,-0.0445,-0.0368,-0.0364,-0.0407,-0.0407,-0.0407,0,0,-0.1025,-0.1033,-0.1045,-0.1045,-0.1027,-0.1025,-0.0984,-0.0969,-0.0951,-0.0859,-0.0807,-0.0729,-0.0632,-0.0563,-0.0524,-0.0515,-0.0408,-0.0445,-0.0448,-0.0444,-0.0366,-0.0362,-0.0358,-0.0406,-0.0406,-0.0406,0,0,-0.1066,-0.107,-0.1102,-0.1087,-0.1069,-0.1044,-0.1041,-0.0998,-0.0964,-0.0902,-0.0831,-0.0745,-0.0639,-0.0566,-0.0515,-0.0484,-0.0426,-0.0464,-0.0485,-0.0412,-0.0408,-0.0404,-0.0338,-0.0328,-0.0464,-0.0464,-0.0464,0,-0.1077,-0.1117,-0.1103,-0.1119,-0.1109,-0.1057,-0.1065,-0.1029,-0.0956,-0.092,-0.0893,-0.0714,-0.0639,-0.0537,-0.0529,-0.049,-0.0444,-0.0489,-0.0417,-0.0412,-0.0407,-0.034,-0.0328,-0.0467,-0.0467,-0.0466,-0.0466,0,-0.1135,-0.1157,-0.1173,-0.1181,-0.1161,-0.1161,-0.1113,-0.1082,-0.1029,-0.0976,-0.0866,-0.0751,-0.0642,-0.0606,-0.0556,-0.0476,-0.0455,-0.0436,-0.042,-0.0408,-0.0337,-0.0323,-0.0472,-0.0471,-0.047,-0.0469,0,0,-0.1184,-0.1212,-0.1214,-0.1224,-0.1191,-0.1184,-0.1155,-0.1107,-0.1082,-0.0981,-0.0923,-0.0778,-0.0706,-0.0642,-0.0558,-0.049,-0.0416,-0.0456,-0.045,-0.0407,-0.0257,-0.0204,-0.0183,-0.0391,-0.0389,-0.0387,-0.0225,0,-0.1229,-0.129,-0.1271,-0.1292,-0.1315,-0.125,-0.1231,-0.117,-0.1098,-0.1033,-0.0891,-0.0797,-0.0722,-0.066,-0.058,-0.0454,-0.0381,-0.0461,-0.0259,-0.0253,-0.0221,-0.0166,-0.0123,0.0029,-0.0211,-0.0209,-0.0207,0,-0.1284,-0.1321,-0.137,-0.1363,-0.1362,-0.1356,-0.1303,-0.127,-0.1163,-0.1097,-0.097,-0.0862,-0.0714,-0.0669,-0.0439,-0.0496,-0.0384,-0.0291,-0.0282,-0.0196,-0.0173,-0.0017,0.0064,0.0206,-0.0184,-0.0186,-0.0188,0,-0.1341,-0.1374,-0.1419,-0.1418,-0.1411,-0.1402,-0.1376,-0.1292,-0.1259,-0.1126,-0.1075,-0.0888,-0.0785,-0.0615,-0.0402,-0.0421,-0.0168,-0.0168,-0.001,-0.0005,0.0093,0.0103,0.0324,-0.0016,-0.0017,-0.0017,-0.0018,0,-0.1397,-0.1426,-0.1458,-0.1483,-0.1518,-0.1468,-0.146,-0.1407,-0.1322,-0.1285,-0.1108,-0.102,-0.077,-0.059,-0.0413,-0.0151,-0.0162,0.0007,0.0051,0.0069,0.0074,0.0251,0.0297,-0.0011,-0.0012,-0.0014,-0.0015,0,-0.1449,-0.1473,-0.1533,-0.1552,-0.1554,-0.1578,-0.1537,-0.1531,-0.1429,-0.1374,-0.1329,-0.1108,-0.0849,-0.0593,-0.0303,-0.0157,0.0185,0.0166,0.017,0.0211,0.0473,0.0511,0.0783,0.0872,0.0367,0.0369,0.0372,0,-0.1484,-0.1527,-0.1595,-0.1642,-0.1655,-0.167,-0.1684,-0.16,-0.1583,-0.1423,-0.1405,-0.114,-0.0924,-0.0455,-0.0132,0.022,0.0315,0.0421,0.0399,0.052,0.0595,0.0614,0.0669,0.0502,0.0505,0.0507,0.0509,0,-0.1546,-0.1577,-0.1638,-0.1748,-0.1793,-0.1821,-0.1822,-0.1826,-0.1725,-0.1648,-0.1483,-0.1284,-0.0788,-0.033,0.0124,0.0313,0.0531,0.0479,0.062,0.0743,0.0766,0.086,0.0348,0.0531,0.0529,0.0527,0.0526,0.0525,-0.1593,-0.1663,-0.1759,-0.1863,-0.192,-0.1971,-0.2001,-0.1962,-0.1923,-0.1735,-0.153,-0.1094,-0.0489,0.0197,0.0396,0.0804,0.0745,0.0906,0.095,0.0963,0.1037,0.0566,0.078,0.078,0.0779,0.0779,0.0778,0,-0.1656,-0.1745,-0.1857,-0.1992,-0.2085,-0.207,-0.2101,-0.208,-0.2039,-0.1662,-0.1402,-0.0547,0.0021,0.0551,0.1098,0.1277,0.1296,0.1341,0.1382,0.1422,0.1037,0.1029,0.1287,0.1287,0.1287,0.1287,0.1287,0.1287,-0.17,-0.1833,-0.1914,-0.2119,-0.2196,-0.23,-0.2322,-0.2232,-0.1963,-0.1337,-0.0723,-0.0196,0.0477,0.1243,0.1682,0.1693,0.1832,0.1802,0.1881,0.1607,0.1569,0.1532,0.1539,0.1899,0.19,0.2252,0.2256,0.2258]}],[{"header":{"parameterUnit":"m.s-1","parameterCategory":2,"la1":30.2991,"la2":30.254,"lo1":-89.0895,"lo2":-89.0444,"dy":0.0017,"dx":0.0017,"nx":28,"ny":28,"refTime":"2024-08-24T09:00:00:Z","depth":"2","parameterNumber":2,"parameterNumberName":"U-component_of_CURRENTS"},"data":[0,0,0,0,0,0,0,0,0,0,0,0,0,0,0,0,0,0,0,0,0,0,0,0,0,0,0,0,0,0,0,0,0,0,0,0,0,0,0,0,0,0,0,0,0,0,0,0,0,0,0,0,0,0,0,0,0,0,-0.259,-0.2591,0,-0.2646,-0.2647,-0.2647,-0.2631,-0.2631,-0.263,-0.2629,-0.2565,-0.2564,-0.2563,0,0,0,0,0,0,0,0,0,0,0,0,0,-0.2466,-0.2468,-0.259,-0.2591,-0.2593,-0.2646,-0.2647,-0.2647,-0.2632,-0.2631,-0.263,-0.2629,-0.2565,-0.2564,-0.2563,0,0,0,0,0,0,0,0,0,0,0,0,0,-0.2517,-0.2469,-0.259,-0.2594,-0.2596,-0.2646,-0.2647,-0.2647,-0.2632,-0.2631,-0.2629,-0.2628,-0.2565,-0.2564,-0.2562,-0.2576,0,0,-0.2558,-0.2557,0,0,0,0,0,0,0,0,-0.2514,-0.2521,-0.2593,-0.2594,-0.2596,-0.2634,-0.2579,-0.2619,-0.2632,-0.2614,-0.2629,-0.2628,-0.258,-0.2578,-0.2586,-0.2573,-0.257,-0.2558,-0.2557,-0.2556,-0.2556,0,0,0,0,0,0,0,-0.251,-0.2519,-0.2608,-0.2594,-0.2596,-0.2592,-0.2598,-0.2587,-0.2597,-0.2615,-0.2615,-0.2628,-0.2579,-0.2588,-0.2584,-0.2569,-0.2558,-0.2556,-0.2555,-0.2555,-0.2549,-0.255,0,0,0,0,0,0,-0.2514,-0.2516,-0.2607,-0.261,-0.2556,-0.2596,-0.2602,-0.262,-0.26,-0.2598,-0.2629,-0.2627,-0.2591,-0.2586,-0.2582,-0.2589,-0.2556,-0.2555,-0.2554,-0.2548,-0.2549,-0.255,0,0,0,0,0,0,-0.2511,-0.2522,-0.2604,-0.2567,-0.2578,-0.2599,-0.262,-0.2622,-0.2631,-0.2613,-0.2607,-0.2638,-0.259,-0.2584,-0.2586,-0.2587,-0.2554,-0.2553,-0.2547,-0.2549,-0.255,-0.2608,0,0,0,0,0,0,-0.2507,-0.252,-0.2531,-0.2567,-0.258,-0.2646,-0.2621,-0.2624,-0.2643,-0.2641,-0.2618,-0.2611,-0.2589,-0.2588,-0.2584,-0.2584,-0.2551,-0.2547,-0.2548,-0.2549,-0.2605,-0.2611,-0.2616,0,0,0,0,0,-0.2503,-0.2527,-0.2531,-0.2542,-0.2595,-0.2648,-0.2655,-0.2662,-0.2645,-0.2663,-0.2646,-0.2612,-0.2593,-0.2589,-0.2583,-0.2582,-0.2546,-0.2548,-0.2549,-0.2603,-0.261,-0.2616,0,0,0,0,0,0,-0.2477,-0.2529,-0.2534,-0.2572,-0.2612,-0.2647,-0.2664,-0.2669,-0.2672,-0.2663,-0.2631,-0.2625,-0.2625,-0.2601,-0.2596,-0.2585,-0.256,-0.2561,-0.2602,-0.2609,-0.2614,-0.263,-0.255,0,0,0,0,0,-0.2479,-0.2503,-0.2558,-0.2584,-0.2609,-0.2636,-0.2655,-0.2668,-0.268,-0.2681,-0.2664,-0.2642,-0.263,-0.2618,-0.2608,-0.2607,-0.2589,-0.26,-0.2605,-0.261,-0.262,-0.2599,-0.2603,-0.2556,-0.2556,-0.2556,0,0,-0.2471,-0.2504,-0.2516,-0.2579,-0.2606,-0.2659,-0.2644,-0.2685,-0.2717,-0.2671,-0.2693,-0.2667,-0.2637,-0.2638,-0.2634,-0.2616,-0.2617,-0.2612,-0.2616,-0.2624,-0.2601,-0.2606,-0.261,-0.2557,-0.2557,-0.2556,0,0,-0.2487,-0.2506,-0.2544,-0.2587,-0.2645,-0.267,-0.2686,-0.273,-0.2737,-0.2763,-0.2732,-0.2714,-0.2699,-0.2679,-0.2665,-0.2695,-0.2653,-0.2681,-0.2713,-0.2693,-0.2696,-0.2699,-0.2695,-0.2697,-0.2675,-0.2675,-0.2676,0,-0.2476,-0.2518,-0.2562,-0.2621,-0.2639,-0.268,-0.2719,-0.276,-0.2792,-0.2797,-0.2776,-0.2748,-0.272,-0.2713,-0.2721,-0.2707,-0.2693,-0.269,-0.27,-0.2702,-0.2704,-0.2699,-0.2701,-0.2679,-0.2678,-0.2678,-0.2678,0,-0.2527,-0.256,-0.2585,-0.2662,-0.2708,-0.2735,-0.2806,-0.2853,-0.2853,-0.2864,-0.286,-0.2823,-0.2797,-0.2783,-0.2761,-0.2758,-0.2744,-0.2715,-0.2684,-0.2713,-0.2706,-0.2706,-0.2683,-0.2682,-0.2681,-0.268,0,0,-0.2465,-0.2591,-0.2588,-0.2616,-0.2709,-0.2745,-0.2837,-0.2894,-0.2948,-0.2941,-0.2956,-0.2922,-0.2882,-0.2864,-0.2821,-0.2802,-0.2806,-0.2767,-0.2765,-0.2765,-0.2773,-0.2627,-0.2613,-0.2774,-0.2774,-0.2774,-0.2767,0,-0.2461,-0.2578,-0.2612,-0.2668,-0.2734,-0.2786,-0.2882,-0.2955,-0.2987,-0.303,-0.2979,-0.2975,-0.2919,-0.2896,-0.2869,-0.2829,-0.2808,-0.2811,-0.2743,-0.2742,-0.2609,-0.2609,-0.2435,-0.2401,-0.2767,-0.2767,-0.2767,0,-0.2463,-0.2549,-0.2644,-0.2708,-0.2731,-0.2785,-0.29,-0.2977,-0.3084,-0.3094,-0.3078,-0.3047,-0.3014,-0.2957,-0.2895,-0.2898,-0.2842,-0.2806,-0.2803,-0.2646,-0.2595,-0.2428,-0.2388,-0.2768,-0.2768,-0.2768,-0.2767,0,-0.2439,-0.2509,-0.2577,-0.2608,-0.2758,-0.2795,-0.286,-0.3012,-0.305,-0.3135,-0.3117,-0.3111,-0.3041,-0.3015,-0.29,-0.2914,-0.282,-0.283,-0.2649,-0.2639,-0.2466,-0.2439,-0.2782,-0.2782,-0.2782,-0.2782,-0.2782,0,-0.2416,-0.2438,-0.2578,-0.2639,-0.2706,-0.2809,-0.2859,-0.2984,-0.3073,-0.3076,-0.3122,-0.3068,-0.3041,-0.2964,-0.2927,-0.2761,-0.2829,-0.2654,-0.2618,-0.2481,-0.2457,-0.2752,-0.2748,-0.2782,-0.2782,-0.2782,-0.2782,0,-0.2385,-0.2481,-0.2565,-0.2706,-0.2726,-0.2804,-0.2827,-0.2858,-0.2987,-0.2991,-0.2994,-0.3006,-0.2917,-0.2871,-0.2803,-0.2724,-0.265,-0.2566,-0.2409,-0.2352,-0.25,-0.25,-0.2429,-0.2424,-0.2419,-0.2415,-0.2412,0,-0.2373,-0.2443,-0.2604,-0.2647,-0.2692,-0.2746,-0.2765,-0.2847,-0.2843,-0.2911,-0.2881,-0.2829,-0.271,-0.2572,-0.2485,-0.2402,-0.2476,-0.2171,-0.2159,-0.2487,-0.246,-0.2467,-0.2473,-0.1977,-0.197,-0.1965,-0.196,0,-0.2336,-0.2421,-0.2516,-0.2631,-0.2646,-0.2595,-0.261,-0.2605,-0.2671,-0.2655,-0.2627,-0.2567,-0.243,-0.2233,-0.2105,-0.2047,-0.2193,-0.2056,-0.2421,-0.2073,-0.2052,-0.2029,-0.2051,-0.1913,-0.1917,-0.1921,-0.1924,-0.1925,-0.2273,-0.2333,-0.2465,-0.2529,-0.2532,-0.2448,-0.2349,-0.2335,-0.2287,-0.2247,-0.2303,-0.2139,-0.2107,-0.1813,-0.1719,-0.168,-0.184,-0.1777,-0.1798,-0.1823,-0.1752,-0.1721,-0.1509,-0.1511,-0.1513,-0.1515,-0.1516,0,-0.2128,-0.2219,-0.2303,-0.2312,-0.2192,-0.2273,-0.2201,-0.2076,-0.1946,-0.194,-0.1843,-0.1603,-0.1441,-0.145,-0.1315,-0.1282,-0.132,-0.1232,-0.1291,-0.1338,-0.1379,-0.129,-0.0923,-0.0921,-0.092,-0.0918,0,0,-0.2065,-0.2092,-0.2147,-0.1949,-0.1924,-0.17,-0.1649,-0.1572,-0.1539,-0.1405,-0.1306,-0.1311,-0.1372,-0.1123,-0.1079,-0.0981,-0.1151,-0.0933,-0.1408,-0.1522,-0.1562,-0.1688,-0.16,0,0,0,0,0]},{"header":{"parameterUnit":"m.s-1","parameterCategory":2,"la1":30.2991,"la2":30.254,"lo1":-89.0895,"lo2":-89.0444,"dy":0.0017,"dx":0.0017,"nx":28,"ny":28,"refTime":"2024-08-24T09:00:00:Z","depth":"2","parameterNumber":3,"parameterNumberName":"V-component_of_CURRENTS"},"data":[0,0,0,0,0,0,0,0,0,0,0,0,0,0,0,0,0,0,0,0,0,0,0,0,0,0,0,0,0,0,0,0,0,0,0,0,0,0,0,0,0,0,0,0,0,0,0,0,0,0,0,0,0,0,0,0,0,0,0.0474,0.0475,0,0.0528,0.0528,0.0528,0.0542,0.0541,0.0541,0.0541,0.0539,0.0539,0.0539,0,0,0,0,0,0,0,0,0,0,0,0,0,0.038,0.0381,0.0474,0.0475,0.0476,0.0527,0.0528,0.0529,0.0542,0.0541,0.0541,0.0541,0.0539,0.0539,0.0539,0,0,0,0,0,0,0,0,0,0,0,0,0,0.0424,0.0382,0.0474,0.049,0.0492,0.0527,0.0528,0.0529,0.0542,0.0541,0.0541,0.0541,0.0539,0.0539,0.0539,0.0546,0,0,0.054,0.054,0,0,0,0,0,0,0,0,0.0421,0.0427,0.0487,0.0489,0.0491,0.0529,0.0494,0.0532,0.0542,0.0521,0.0541,0.0541,0.0532,0.0533,0.0542,0.0546,0.0546,0.054,0.054,0.054,0.054,0,0,0,0,0,0,0,0.0418,0.0425,0.0493,0.0488,0.0491,0.0493,0.0499,0.0502,0.0525,0.0523,0.0524,0.0533,0.0533,0.0541,0.0541,0.0546,0.054,0.054,0.054,0.054,0.0507,0.0506,0,0,0,0,0,0,0.0416,0.0422,0.0492,0.0495,0.0457,0.0495,0.0502,0.0516,0.0526,0.0528,0.0533,0.0534,0.0541,0.0541,0.0541,0.0488,0.054,0.054,0.054,0.0508,0.0507,0.0506,0,0,0,0,0,0,0.0414,0.0422,0.049,0.0461,0.047,0.0497,0.0513,0.0517,0.0506,0.0535,0.0536,0.0516,0.0541,0.0541,0.0528,0.049,0.054,0.054,0.0509,0.0508,0.0506,0.0421,0,0,0,0,0,0,0.0411,0.0421,0.0413,0.0461,0.0472,0.0494,0.0514,0.0518,0.0514,0.0514,0.0521,0.0522,0.0541,0.0528,0.0528,0.0491,0.0541,0.0511,0.0509,0.0507,0.0425,0.0416,0.0409,0,0,0,0,0,0.0408,0.0395,0.0412,0.042,0.0466,0.0493,0.0498,0.0516,0.0513,0.0504,0.0509,0.052,0.0516,0.0527,0.0528,0.049,0.0511,0.0509,0.0507,0.0428,0.0418,0.041,0,0,0,0,0,0,0.0341,0.0397,0.0417,0.042,0.0449,0.0496,0.0479,0.0499,0.0498,0.0485,0.0511,0.0512,0.0488,0.0504,0.0515,0.0477,0.0514,0.0512,0.0454,0.0445,0.0437,0.0428,0.0541,0,0,0,0,0,0.0327,0.0333,0.0391,0.0388,0.0397,0.0434,0.044,0.0458,0.0474,0.0472,0.0479,0.0481,0.0484,0.0475,0.0483,0.0459,0.0496,0.0436,0.0428,0.0421,0.0415,0.0435,0.0428,0.0499,0.0499,0.0499,0,0,0.0299,0.033,0.0332,0.0373,0.039,0.0396,0.0434,0.0435,0.0431,0.047,0.0441,0.0455,0.0474,0.0452,0.0441,0.0455,0.0425,0.0418,0.0412,0.041,0.0432,0.0425,0.0419,0.0497,0.0497,0.0498,0,0,0.0244,0.0272,0.0257,0.0283,0.0311,0.0342,0.0337,0.0372,0.0372,0.0363,0.0388,0.0383,0.0378,0.0391,0.0396,0.035,0.0389,0.0342,0.0285,0.0303,0.0298,0.0293,0.035,0.0351,0.033,0.033,0.033,0,0.0204,0.0204,0.0253,0.0249,0.0259,0.0312,0.0299,0.0314,0.0337,0.0334,0.0337,0.034,0.0351,0.034,0.0319,0.0331,0.0359,0.0316,0.0293,0.0289,0.0286,0.0345,0.0348,0.0325,0.0326,0.0326,0.0327,0,0.0151,0.0146,0.0133,0.0154,0.0173,0.0166,0.0213,0.0208,0.0213,0.0238,0.0222,0.0246,0.0247,0.0246,0.0262,0.0239,0.0275,0.0286,0.0314,0.0273,0.0339,0.0343,0.0319,0.0321,0.0322,0.0323,0,0,0.0082,0.0092,0.0087,0.0076,0.0122,0.013,0.0123,0.014,0.0125,0.014,0.0122,0.0125,0.0142,0.0149,0.0172,0.0181,0.0186,0.0206,0.0209,0.0261,0.0248,0.0264,0.0271,0.0183,0.0183,0.0182,0.0311,0,0.002,-0.0029,0.0016,-0.002,-0.0043,0.0019,0.0015,0.004,0.0056,0.0052,0.0083,0.0075,0.0105,0.0092,0.0106,0.0162,0.0188,0.0152,0.0283,0.0288,0.0303,0.0272,0.0255,0.0365,0.0315,0.0316,0.0316,0,-0.0037,-0.0067,-0.0126,-0.012,-0.012,-0.0122,-0.0115,-0.011,-0.0078,-0.007,-0.0057,-0.0018,-0.0002,0.0025,0.011,0.0079,0.0151,0.0207,0.0213,0.0257,0.0309,0.0395,0.0375,0.0324,0.0323,0.0323,0.0322,0,-0.0129,-0.0153,-0.0214,-0.0212,-0.0199,-0.0211,-0.02,-0.0165,-0.0168,-0.0153,-0.015,-0.0105,-0.0089,-0.0013,0.0101,0.0095,0.0213,0.023,0.0329,0.0334,0.0361,0.0367,0.0297,0.0297,0.0297,0.0296,0.0296,0,-0.0205,-0.0246,-0.0272,-0.0305,-0.0363,-0.031,-0.0344,-0.0329,-0.03,-0.0313,-0.0232,-0.0229,-0.0105,-0.0015,0.0085,0.0219,0.0207,0.0318,0.0354,0.0333,0.0335,0.0327,0.0329,0.0301,0.03,0.0299,0.0298,0,-0.0293,-0.0306,-0.0379,-0.0406,-0.0413,-0.046,-0.0439,-0.0456,-0.0418,-0.0432,-0.0432,-0.0322,-0.0208,-0.0046,0.0103,0.0203,0.0328,0.0387,0.0372,0.0403,0.045,0.0446,0.0507,0.0508,0.0509,0.051,0.0511,0,-0.0335,-0.04,-0.0477,-0.0523,-0.054,-0.0581,-0.0597,-0.0547,-0.0559,-0.0497,-0.0518,-0.0388,-0.029,-0.0028,0.0154,0.0369,0.0371,0.0479,0.0456,0.0436,0.0466,0.046,0.0454,0.0482,0.0483,0.0483,0.0483,0,-0.0437,-0.0481,-0.055,-0.0656,-0.0698,-0.0721,-0.0744,-0.0763,-0.0706,-0.0671,-0.0605,-0.0507,-0.025,-0.0017,0.0261,0.0371,0.0436,0.0493,0.0472,0.0415,0.0417,0.0445,0.044,0.0487,0.0486,0.0486,0.0486,0.0486,-0.051,-0.0596,-0.0699,-0.0787,-0.0828,-0.0855,-0.0877,-0.0864,-0.0845,-0.076,-0.0662,-0.0457,-0.0245,0.0164,0.0332,0.0495,0.0487,0.0545,0.0542,0.0539,0.0496,0.0498,0.0578,0.0578,0.0578,0.0578,0.0579,0,-0.0596,-0.0703,-0.0809,-0.088,-0.0912,-0.0922,-0.0962,-0.096,-0.0933,-0.0755,-0.0617,-0.0337,-0.0054,0.0168,0.0429,0.0575,0.0562,0.0598,0.0558,0.0553,0.055,0.0505,0.0591,0.0592,0.0592,0.0593,0,0,-0.0645,-0.0783,-0.0847,-0.0934,-0.0972,-0.1016,-0.1046,-0.1024,-0.0924,-0.0738,-0.0521,-0.0261,-0.0009,0.0185,0.0355,0.0489,0.0484,0.0497,0.0472,0.0399,0.0394,0.0503,0.0428,0,0,0,0,0]}],[{"header":{"parameterUnit":"m.s-1","parameterCategory":2,"la1":30.2991,"la2":30.254,"lo1":-89.0895,"lo2":-89.0444,"dy":0.0017,"dx":0.0017,"nx":28,"ny":28,"refTime":"2024-08-24T09:00:00:Z","depth":"4","parameterNumber":2,"parameterNumberName":"U-component_of_CURRENTS"},"data":[0,0,0,0,0,0,0,0,0,0,0,0,0,0,0,0,0,0,0,0,0,0,0,0,0,0,0,0,0,0,0,0,0,0,0,0,0,0,0,0,0,0,0,0,0,0,0,0,0,0,0,0,0,0,0,0,0,0,-0.1013,-0.1014,0,-0.1071,-0.1072,-0.1072,-0.1111,-0.1112,-0.1112,-0.1113,-0.1218,-0.122,-0.1223,0,0,0,0,0,0,0,0,0,0,0,0,0,-0.0924,-0.0925,-0.1013,-0.1014,-0.1015,-0.1071,-0.1072,-0.1072,-0.1111,-0.1112,-0.1112,-0.1113,-0.1217,-0.122,-0.1223,0,0,0,0,0,0,0,0,0,0,0,0,0,-0.0968,-0.0925,-0.1013,-0.1043,-0.1047,-0.1071,-0.1072,-0.1072,-0.1111,-0.1112,-0.1112,-0.1113,-0.1217,-0.122,-0.1223,-0.1229,0,0,-0.1234,-0.1235,0,0,0,0,0,0,0,0,-0.0965,-0.097,-0.1038,-0.1041,-0.1045,-0.1087,-0.1079,-0.1128,-0.1111,-0.1084,-0.1113,-0.1114,-0.118,-0.1187,-0.1191,-0.1234,-0.1238,-0.1234,-0.1236,-0.1238,-0.1239,0,0,0,0,0,0,0,-0.0962,-0.0968,-0.1033,-0.1039,-0.1044,-0.105,-0.1057,-0.1088,-0.1125,-0.1086,-0.109,-0.11,-0.1182,-0.1187,-0.1194,-0.124,-0.1234,-0.1237,-0.1239,-0.1241,-0.1388,-0.139,0,0,0,0,0,0,-0.0961,-0.0965,-0.1032,-0.1035,-0.101,-0.1051,-0.1059,-0.1071,-0.1124,-0.1133,-0.11,-0.1102,-0.1181,-0.119,-0.1198,-0.1295,-0.1238,-0.1241,-0.1243,-0.1386,-0.1388,-0.139,0,0,0,0,0,0,-0.0958,-0.0966,-0.1029,-0.1004,-0.1013,-0.1052,-0.1065,-0.1071,-0.1098,-0.1134,-0.1144,-0.1122,-0.1182,-0.1193,-0.1239,-0.1296,-0.1243,-0.1246,-0.1384,-0.1387,-0.1389,-0.1432,0,0,0,0,0,0,-0.0955,-0.0965,-0.0984,-0.1004,-0.1014,-0.1045,-0.1065,-0.1072,-0.1103,-0.1107,-0.1157,-0.1166,-0.1184,-0.1234,-0.1243,-0.13,-0.1249,-0.1382,-0.1385,-0.1388,-0.1429,-0.1436,-0.1443,0,0,0,0,0,-0.0952,-0.097,-0.0984,-0.0993,-0.1036,-0.1045,-0.1051,-0.108,-0.1104,-0.1108,-0.1149,-0.1165,-0.1263,-0.1237,-0.1247,-0.1307,-0.138,-0.1384,-0.1388,-0.1426,-0.1435,-0.1443,0,0,0,0,0,0,-0.0938,-0.0977,-0.0993,-0.1022,-0.1034,-0.1053,-0.1071,-0.1089,-0.1124,-0.1134,-0.1174,-0.1186,-0.1262,-0.1267,-0.1238,-0.136,-0.1331,-0.1337,-0.1356,-0.1365,-0.1372,-0.1313,-0.1251,0,0,0,0,0,-0.0945,-0.0971,-0.0995,-0.1017,-0.1027,-0.1052,-0.1068,-0.1077,-0.1106,-0.1123,-0.1181,-0.1232,-0.1283,-0.1307,-0.1354,-0.14,-0.1392,-0.145,-0.1457,-0.1463,-0.1423,-0.1481,-0.1489,-0.1404,-0.1404,-0.1404,0,0,-0.0941,-0.0971,-0.0984,-0.1017,-0.1033,-0.1062,-0.1063,-0.1077,-0.1104,-0.113,-0.1212,-0.1266,-0.1303,-0.1372,-0.1405,-0.1382,-0.1485,-0.1468,-0.1473,-0.1429,-0.1486,-0.1494,-0.1501,-0.1406,-0.1406,-0.1406,0,0,-0.0935,-0.0977,-0.0989,-0.1016,-0.1043,-0.1066,-0.1075,-0.1116,-0.1134,-0.1209,-0.124,-0.131,-0.1411,-0.1433,-0.1458,-0.1525,-0.1531,-0.1564,-0.1542,-0.1601,-0.1607,-0.1613,-0.1614,-0.162,-0.1556,-0.1556,-0.1556,0,-0.0932,-0.0967,-0.099,-0.1018,-0.1057,-0.1076,-0.1103,-0.1119,-0.1178,-0.1199,-0.1249,-0.14,-0.1442,-0.1487,-0.1508,-0.1543,-0.1549,-0.1509,-0.1608,-0.1614,-0.1619,-0.1618,-0.1624,-0.1559,-0.1558,-0.1558,-0.1558,0,-0.0936,-0.098,-0.0993,-0.1052,-0.1085,-0.1111,-0.1144,-0.1178,-0.1246,-0.1282,-0.1374,-0.1439,-0.1521,-0.1563,-0.1554,-0.1606,-0.159,-0.1622,-0.158,-0.1629,-0.1627,-0.1631,-0.1562,-0.1562,-0.1561,-0.156,0,0,-0.0891,-0.098,-0.0989,-0.1032,-0.1114,-0.1134,-0.118,-0.1222,-0.1259,-0.1349,-0.1422,-0.1505,-0.1542,-0.1565,-0.1585,-0.1609,-0.1661,-0.1611,-0.1613,-0.1598,-0.1746,-0.1634,-0.1628,-0.1717,-0.1718,-0.1719,-0.1729,0,-0.0893,-0.0947,-0.1006,-0.1083,-0.1118,-0.118,-0.123,-0.1267,-0.1335,-0.1414,-0.1455,-0.1549,-0.1539,-0.1596,-0.1618,-0.1662,-0.1674,-0.1651,-0.1709,-0.1709,-0.1595,-0.1631,-0.1723,-0.1732,-0.1733,-0.1734,-0.1735,0,-0.0876,-0.0927,-0.0986,-0.1103,-0.1127,-0.1188,-0.1279,-0.1324,-0.1393,-0.1445,-0.1514,-0.157,-0.1605,-0.1626,-0.1677,-0.1663,-0.1685,-0.1708,-0.1712,-0.1581,-0.1606,-0.1675,-0.1743,-0.1742,-0.1741,-0.1741,-0.174,0,-0.0806,-0.092,-0.0973,-0.1017,-0.1139,-0.1184,-0.1261,-0.1336,-0.1378,-0.1462,-0.1528,-0.1585,-0.1655,-0.1684,-0.1711,-0.1713,-0.1767,-0.1802,-0.1707,-0.1699,-0.1776,-0.1769,-0.1832,-0.1832,-0.1832,-0.1832,-0.1832,0,-0.0783,-0.0831,-0.0952,-0.0979,-0.106,-0.1165,-0.1248,-0.1305,-0.1414,-0.1469,-0.1539,-0.1585,-0.1679,-0.1722,-0.1725,-0.1706,-0.179,-0.1676,-0.1695,-0.1795,-0.1791,-0.1778,-0.1772,-0.1833,-0.1833,-0.1832,-0.1832,0,-0.0684,-0.0766,-0.0822,-0.0958,-0.1017,-0.1067,-0.1242,-0.1297,-0.1396,-0.1477,-0.151,-0.1613,-0.1655,-0.1703,-0.177,-0.1729,-0.1727,-0.17,-0.1757,-0.1784,-0.1611,-0.1608,-0.1598,-0.1594,-0.1591,-0.1588,-0.1586,0,-0.0646,-0.0657,-0.0774,-0.0823,-0.0896,-0.1011,-0.1092,-0.1248,-0.1311,-0.1465,-0.149,-0.1586,-0.163,-0.1604,-0.1672,-0.1664,-0.1654,-0.1634,-0.1635,-0.1567,-0.1589,-0.159,-0.159,-0.1581,-0.158,-0.1579,-0.1578,0,-0.0563,-0.0585,-0.0611,-0.0705,-0.0802,-0.0919,-0.1057,-0.1104,-0.1275,-0.1371,-0.1424,-0.146,-0.1507,-0.1537,-0.154,-0.1536,-0.1639,-0.1601,-0.1608,-0.1608,-0.1547,-0.1571,-0.1576,-0.1567,-0.1569,-0.157,-0.1571,0,-0.048,-0.0463,-0.0501,-0.0573,-0.0697,-0.0823,-0.0912,-0.1026,-0.1117,-0.1298,-0.1304,-0.1393,-0.1487,-0.147,-0.1468,-0.1457,-0.1451,-0.1413,-0.143,-0.1443,-0.139,-0.129,-0.1227,0,0,0,0,0,-0.0414,-0.0379,-0.041,-0.0492,-0.0615,-0.0707,-0.0892,-0.0989,-0.1153,-0.115,-0.1234,-0.126,-0.1292,-0.1335,-0.1296,-0.1416,-0.1461,-0.1365,-0.1426,-0.1505,-0.1518,-0.1471,0,0,0,0,0,0,-0.037,-0.0361,-0.0347,-0.0422,-0.0479,-0.0635,-0.0751,-0.0872,-0.0889,-0.1037,-0.1051,-0.1149,-0.1186,-0.1263,-0.1244,-0.1262,-0.1274,-0.1422,-0.1419,-0.1497,-0.1509,-0.152,-0.1476,0,0,0,0,0]},{"header":{"parameterUnit":"m.s-1","parameterCategory":2,"la1":30.2991,"la2":30.254,"lo1":-89.0895,"lo2":-89.0444,"dy":0.0017,"dx":0.0017,"nx":28,"ny":28,"refTime":"2024-08-24T09:00:00:Z","depth":"4","parameterNumber":3,"parameterNumberName":"V-component_of_CURRENTS"},"data":[0,0,0,0,0,0,0,0,0,0,0,0,0,0,0,0,0,0,0,0,0,0,0,0,0,0,0,0,0,0,0,0,0,0,0,0,0,0,0,0,0,0,0,0,0,0,0,0,0,0,0,0,0,0,0,0,0,0,0.0088,0.0088,0,0.0088,0.0087,0.0087,0.0106,0.0107,0.0107,0.0108,0.016,0.0161,0.0161,0,0,0,0,0,0,0,0,0,0,0,0,0,0.0087,0.0087,0.0088,0.0088,0.0088,0.0088,0.0087,0.0087,0.0106,0.0107,0.0108,0.0109,0.016,0.0161,0.0161,0,0,0,0,0,0,0,0,0,0,0,0,0,0.0085,0.0087,0.0088,0.0099,0.0101,0.0088,0.0087,0.0087,0.0106,0.0107,0.0108,0.0109,0.016,0.0161,0.0162,0.0146,0,0,0.0165,0.0165,0,0,0,0,0,0,0,0,0.0085,0.0084,0.0097,0.0099,0.01,0.01,0.0106,0.011,0.0105,0.0101,0.0108,0.0109,0.0146,0.0148,0.0141,0.0148,0.015,0.0165,0.0165,0.0166,0.0166,0,0,0,0,0,0,0,0.0085,0.0084,0.0085,0.0098,0.0099,0.0099,0.01,0.0107,0.0116,0.0101,0.0103,0.0107,0.0147,0.014,0.0143,0.0151,0.0165,0.0166,0.0166,0.0167,0.0176,0.0176,0,0,0,0,0,0,0.009,0.0085,0.0085,0.0085,0.0098,0.0098,0.0099,0.0097,0.0115,0.0119,0.0106,0.0108,0.0138,0.0141,0.0145,0.0144,0.0166,0.0167,0.0168,0.0177,0.0176,0.0176,0,0,0,0,0,0,0.009,0.009,0.0085,0.0087,0.0087,0.0098,0.0095,0.0096,0.0098,0.0119,0.0123,0.0109,0.0139,0.0143,0.0149,0.0146,0.0167,0.0168,0.0177,0.0176,0.0176,0.0134,0,0,0,0,0,0,0.0089,0.0089,0.0092,0.0087,0.0087,0.0068,0.0094,0.0096,0.01,0.0103,0.0122,0.0127,0.014,0.0147,0.015,0.0148,0.0169,0.0177,0.0177,0.0176,0.0135,0.0132,0.0128,0,0,0,0,0,0.0089,0.0084,0.0092,0.0092,0.009,0.0067,0.0066,0.0076,0.0099,0.0085,0.0106,0.0127,0.0146,0.0147,0.0151,0.0149,0.0178,0.0177,0.0176,0.0137,0.0132,0.0128,0,0,0,0,0,0,0.0083,0.0086,0.0094,0.009,0.0077,0.0071,0.0065,0.0076,0.008,0.0087,0.0116,0.0122,0.0129,0.0142,0.0144,0.015,0.0167,0.0167,0.0137,0.0132,0.0129,0.0113,0.017,0,0,0,0,0,0.0083,0.0081,0.0077,0.0071,0.0065,0.0067,0.0064,0.0064,0.0068,0.0071,0.0093,0.0113,0.0124,0.0131,0.0141,0.014,0.0167,0.0143,0.0139,0.0136,0.0126,0.0178,0.0179,0.0173,0.0173,0.0173,0,0,0.0078,0.0081,0.0079,0.007,0.0063,0.0044,0.0066,0.005,0.0036,0.0076,0.0075,0.0101,0.0121,0.012,0.0125,0.0133,0.0149,0.0135,0.0132,0.0124,0.0178,0.0178,0.0179,0.0172,0.0172,0.0173,0,0,0.0053,0.0066,0.005,0.0037,0.0025,0.0026,0.0023,0.0018,0.0017,0.0018,0.0045,0.007,0.0089,0.01,0.0109,0.0093,0.013,0.0098,0.0066,0.0117,0.0118,0.0119,0.0141,0.0145,0.0095,0.0095,0.0095,0,0.005,0.0029,0.0038,0.0014,0.0009,0.0019,-0.0006,-0.0016,-0.0015,-0.001,0.0015,0.0062,0.0081,0.0084,0.0072,0.0086,0.011,0.008,0.0113,0.0115,0.0117,0.0139,0.0144,0.0093,0.0093,0.0094,0.0094,0,0.0008,-0.001,-0.0024,-0.0042,-0.0048,-0.0074,-0.0078,-0.0081,-0.0056,-0.0049,-0.0028,0.0004,0.0038,0.0046,0.005,0.0064,0.0074,0.0105,0.0124,0.0115,0.0139,0.0144,0.009,0.0091,0.0091,0.0092,0,0,0.0006,-0.0044,-0.0046,-0.0069,-0.0079,-0.0093,-0.011,-0.012,-0.0121,-0.0096,-0.008,-0.0059,-0.0021,-0.0011,0.0011,0.0042,0.0071,0.0067,0.007,0.0087,0.0163,0.016,0.0166,0.0112,0.0113,0.0114,0.0169,0,-0.003,-0.0092,-0.0092,-0.0138,-0.0171,-0.0156,-0.0172,-0.0174,-0.0153,-0.0137,-0.0097,-0.0072,-0.0052,-0.0027,0.0004,0.006,0.0086,0.0052,0.0169,0.0172,0.0171,0.0173,0.0117,0.0173,0.0175,0.0176,0.0176,0,-0.0061,-0.0103,-0.0163,-0.0197,-0.0204,-0.0219,-0.0215,-0.0228,-0.0209,-0.019,-0.0148,-0.0108,-0.0072,-0.0038,0.0051,0.0029,0.0081,0.0126,0.0131,0.0146,0.018,0.0188,0.0187,0.0186,0.0185,0.0184,0.0184,0,-0.0075,-0.0138,-0.0186,-0.0202,-0.0243,-0.0251,-0.0251,-0.024,-0.025,-0.0215,-0.0195,-0.0136,-0.0096,-0.0016,0.0068,0.0067,0.0172,0.0198,0.024,0.024,0.0245,0.0243,0.0262,0.0262,0.0262,0.0262,0.0262,0,-0.0106,-0.0141,-0.0204,-0.0236,-0.028,-0.028,-0.03,-0.0293,-0.0279,-0.0279,-0.0222,-0.0194,-0.0086,-0.0012,0.0064,0.0164,0.0181,0.0228,0.0259,0.0223,0.0219,0.0248,0.0246,0.0264,0.0264,0.0263,0.0263,0,-0.0113,-0.0158,-0.0225,-0.0283,-0.0297,-0.0323,-0.0341,-0.0354,-0.0332,-0.0322,-0.0309,-0.0233,-0.0133,-0.0033,0.01,0.0159,0.0259,0.0288,0.0218,0.0245,0.0288,0.0283,0.0345,0.0346,0.0346,0.0346,0.0347,0,-0.0123,-0.0166,-0.0257,-0.03,-0.0328,-0.0366,-0.0392,-0.0386,-0.0391,-0.0341,-0.0335,-0.0244,-0.0182,-0.0003,0.0104,0.025,0.0269,0.0315,0.0313,0.0275,0.0299,0.0293,0.0288,0.0347,0.0347,0.0347,0.0347,0,-0.0141,-0.0176,-0.023,-0.0328,-0.0377,-0.043,-0.0454,-0.0465,-0.0444,-0.0424,-0.0345,-0.0243,-0.0137,0.0,0.0107,0.0214,0.0287,0.0319,0.0319,0.0318,0.0279,0.0301,0.0295,0.0349,0.0349,0.0348,0.0348,0,-0.0141,-0.0181,-0.0259,-0.0332,-0.041,-0.0469,-0.0486,-0.0479,-0.0476,-0.0412,-0.0382,-0.0254,-0.0175,-0.0018,0.0087,0.0185,0.0214,0.0248,0.0253,0.0252,0.021,0.0145,0.0198,0,0,0,0,0,-0.0137,-0.0173,-0.0252,-0.0346,-0.0428,-0.0468,-0.0515,-0.0523,-0.0502,-0.045,-0.0414,-0.0306,-0.013,-0.005,0.0048,0.0081,0.0216,0.0199,0.0254,0.0356,0.0355,0.0321,0,0,0,0,0,0,-0.0137,-0.0198,-0.0242,-0.0338,-0.04,-0.0484,-0.052,-0.0514,-0.048,-0.0438,-0.0348,-0.0274,-0.0113,-0.0181,0.0057,0.0087,0.0136,0.0287,0.0289,0.0357,0.0356,0.0355,0.0319,0,0,0,0,0]}]]